N8HKU-5 Weather Reports


time (UTC)temp
F
wind
direction
speed
knots
gust
knots
rain 1hr
in
rain 24hr
in
rain mn
in
humidity
%
barometer
mb
20260503210233 63 255 4.3 17.4 0.00 0.00 0.00 42 1007.6
20260503205233 62 238 4.3 13.0 0.00 0.00 0.00 43 1007.7
20260503204233 62 251 1.7 13.9 0.00 0.00 0.00 42 1007.8
20260503203233 62 252 4.3 13.9 0.00 0.00 0.00 43 1007.8
20260503202233 62 249 1.7 14.8 0.00 0.00 0.00 42 1007.8
20260503201233 62 257 5.2 14.8 0.00 0.00 0.00 44 1007.7
20260503200233 62 255 4.3 13.9 0.00 0.00 0.00 41 1007.9
20260503195233 63 255 3.5 13.0 0.00 0.00 0.00 39 1008.1
20260503194233 63 248 1.7 12.2 0.00 0.00 0.00 42 1008.1
20260503193233 62 266 3.5 13.0 0.00 0.00 0.00 45 1008.4
20260503192234 62 254 2.6 12.2 0.00 0.00 0.00 41 1008.5
20260503191233 62 240 3.5 14.8 0.00 0.00 0.00 43 1008.6
20260503190234 62 263 5.2 13.0 0.00 0.00 0.00 41 1008.7
20260503185233 62 262 3.5 14.8 0.00 0.00 0.00 40 1008.8
20260503184233 62 271 4.3 13.0 0.00 0.00 0.00 42 1008.9
20260503183233 63 236 2.6 12.2 0.00 0.00 0.00 39 1009.0
20260503182234 63 264 3.5 15.6 0.00 0.00 0.00 42 1009.1
20260503181234 63 255 4.3 14.8 0.00 0.00 0.00 41 1009.3
20260503180233 62 251 1.7 11.3 0.00 0.00 0.00 45 1009.4
20260503175234 60 275 4.3 13.9 0.00 0.00 0.00 41 1009.6
20260503174234 62 256 4.3 13.0 0.00 0.00 0.00 42 1009.7
20260503173234 61 226 2.6 11.3 0.00 0.00 0.00 45 1009.9
20260503172234 59 241 1.7 13.0 0.00 0.00 0.00 47 1010.1
20260503171234 58 249 1.7 10.4 0.00 0.00 0.00 44 1010.4
20260503170235 59 262 4.3 14.8 0.00 0.00 0.00 44 1010.5
20260503150234 57 260 2.6 10.4 0.00 0.00 0.00 45 1011.3
20260503140234 51 279 0.9 7.0 0.00 0.00 0.00 57 1011.7
20260503131234 46 209 0.9 9.6 0.00 0.00 0.00 62 1011.9
20260503130234 45 201 0.0 7.0 0.00 0.00 0.00 64 1011.9
20260503110234 36 0 0.0 0.0 0.00 0.00 0.00 75 1011.9
20260503100235 34 0 0.0 0.0 0.00 0.00 0.00 78 1012.1
20260503090234 30 0 0.0 0.0 0.00 0.00 0.00 89 1012.5
20260503081235 30 0 0.0 0.0 0.00 0.00 0.00 87 1012.7
20260503080234 30 0 0.0 0.0 0.00 0.00 0.00 86 1012.7
20260503072234 31 0 0.0 0.0 0.00 0.00 0.00 86 1012.8
20260503071234 31 0 0.0 0.0 0.00 0.00 0.00 87 1012.9
20260503070234 31 0 0.0 0.0 0.00 0.00 0.00 87 1012.9
20260503060234 30 0 0.0 0.0 0.00 0.00 0.00 87 1013.3
20260503054234 31 0 0.0 0.0 0.00 0.00 0.00 87 1013.5
20260503053235 31 0 0.0 0.0 0.00 0.00 0.00 88 1013.4
20260503052234 31 0 0.0 0.0 0.00 0.00 0.00 88 1013.5
20260503051234 31 0 0.0 0.0 0.00 0.00 0.00 87 1013.6
20260503050234 31 0 0.0 0.0 0.00 0.00 0.00 87 1013.6
20260503045234 31 0 0.0 0.0 0.00 0.00 0.00 87 1013.7
20260503044233 32 0 0.0 0.0 0.00 0.00 0.00 87 1013.7
20260503043233 31 0 0.0 0.0 0.00 0.00 0.00 88 1013.7
20260503042233 32 0 0.0 0.0 0.00 0.00 0.00 87 1013.7
20260503041233 32 0 0.0 0.0 0.00 0.00 0.00 88 1013.8
20260503040233 32 0 0.0 0.0 0.00 0.00 0.00 87 1013.8
20260503035233 32 0 0.0 0.0 0.00 0.00 0.00 87 1013.9
20260503034233 32 0 0.0 0.0 0.00 0.00 0.00 86 1013.9
20260503033234 32 0 0.0 0.0 0.00 0.00 0.00 86 1014.0
20260503032234 32 0 0.0 0.0 0.00 0.00 0.00 86 1013.9
20260503031233 33 0 0.0 0.0 0.00 0.00 0.00 85 1014.0
20260503030234 33 0 0.0 0.0 0.00 0.00 0.00 85 1014.0
20260503025234 33 0 0.0 0.0 0.00 0.00 0.00 84 1014.1
20260503024233 33 0 0.0 0.0 0.00 0.00 0.00 83 1014.2
20260503023234 34 0 0.0 0.0 0.00 0.00 0.00 82 1014.2
20260503022234 34 0 0.0 0.0 0.00 0.00 0.00 81 1014.2
20260503021233 35 0 0.0 0.0 0.00 0.00 0.00 81 1014.1
20260503020234 35 0 0.0 0.0 0.00 0.00 0.00 79 1014.0
20260503015234 36 0 0.0 0.0 0.00 0.00 0.00 77 1014.0
20260503014234 36 0 0.0 0.0 0.00 0.00 0.00 73 1013.9
20260503013233 37 0 0.0 0.0 0.00 0.00 0.00 70 1013.9
20260503012234 38 0 0.0 0.0 0.00 0.00 0.00 67 1013.9
20260503011233 39 0 0.0 0.0 0.00 0.00 0.00 65 1013.9
20260503010233 40 0 0.0 0.0 0.00 0.00 0.00 62 1013.9
20260503005234 42 0 0.0 0.0 0.00 0.00 0.00 59 1013.8
20260503004233 43 0 0.0 0.0 0.00 0.00 0.00 56 1013.7
20260503003233 45 0 0.0 0.0 0.00 0.00 0.00 53 1013.7
20260503002234 46 0 0.0 0.0 0.00 0.00 0.00 54 1013.7
20260503001234 46 0 0.0 0.0 0.00 0.00 0.00 49 1013.7
20260503000234 46 0 0.0 0.0 0.00 0.00 0.00 49 1013.7
20260502235233 46 0 0.0 0.0 0.00 0.00 0.00 49 1013.7
20260502234234 47 0 0.0 0.0 0.00 0.00 0.00 48 1013.7
20260502233233 47 0 0.0 0.0 0.00 0.00 0.00 47 1013.7
20260502232233 47 0 0.0 0.0 0.00 0.00 0.00 47 1013.8
20260502231234 47 294 0.0 2.6 0.00 0.00 0.00 46 1013.8
20260502230233 47 259 0.0 3.5 0.00 0.00 0.00 47 1013.9
20260502225234 47 280 0.0 3.5 0.00 0.00 0.00 45 1013.9
20260502224233 47 0 0.0 0.9 0.00 0.00 0.00 46 1013.8
20260502223233 47 264 0.0 7.0 0.00 0.00 0.00 46 1013.8
20260502222234 47 0 0.0 0.9 0.00 0.00 0.00 46 1013.8
20260502221233 47 0 0.0 0.0 0.00 0.00 0.00 44 1013.8
20260502220233 47 0 0.0 0.0 0.00 0.00 0.00 46 1013.8
20260502215234 48 264 0.0 3.5 0.00 0.00 0.00 43 1013.8
20260502214235 48 0 0.0 0.0 0.00 0.00 0.00 46 1013.8
20260502213234 48 227 0.0 0.9 0.00 0.00 0.00 43 1013.9
20260502212234 48 0 0.0 0.0 0.00 0.00 0.00 45 1013.9
20260502211235 48 287 0.0 4.3 0.00 0.00 0.00 46 1013.9